Regional Weather Roundup
Issued by NWS Boston, MA

Current Version | Previous Version | Text Only | Print | Product List | Glossary On
Versions: 1 2 3 4 5 6 7 8 9 10 11 12 13 14 15 16 17 18 19 20 21 22 23 24 25 26 27 28 29 30 31 32 33 34 35 36 37 38 39 40 41 42 43 44 45 46 47 48 49 50
000 ASUS41 KBOX 302210 RWRBOX REGIONAL WEATHER ROUNDUP NATIONAL WEATHER SERVICE TAUNTON MA 600 PM EDT SAT MAY 30 2015 NOTE: "FAIR" INDICATES FEW OR NO CLOUDS BELOW 12,000 FEET WITH NO SIGNIFICANT WEATHER AND/OR OBSTRUCTIONS TO VISIBILITY. THE FOLLOWING OBSERVATION LOCATIONS DO NOT REPORT PRESENT WEATHER...PROVINCETOWN... SMITHFIELD...BLOCK ISLAND...KEENE...AND OXFORD. MAZALL-302300- EASTERN MASSACHUSETTS CITY SKY/WX TMP DP RH WIND PRES REMARKS BOSTON MOSUNNY 82 61 48 S23 30.03S BEVERLY MOSUNNY 83 59 44 SW16G31 30.01S LAWRENCE SUNNY 85 62 46 SW13G18 30.02F BEDFORD MOSUNNY 82 62 50 S21G28 30.02S BLUE HILL N/A 79 58 48 SW23G38 30.06S NORWOOD SUNNY 82 60 47 S17G26 30.05S MARSHFIELD SUNNY 79 64 61 S14G30 30.08S PLYMOUTH SUNNY 76 63 64 SW23G31 30.10S TAUNTON SUNNY 76 63 64 SW13G26 30.09F NEW BEDFORD SUNNY 74 64 71 SW17G26 30.10F $$ MAZALL-302300- CAPE COD AND THE ISLANDS CITY SKY/WX TMP DP RH WIND PRES REMARKS FALMOUTH SUNNY 73 64 73 SW17G26 30.13S HYANNIS SUNNY 72 63 73 S15 30.12S CHATHAM SUNNY 67 63 87 SW8G22 30.14S PROVINCETOWN SUNNY 70 61 73 SW16G25 30.10S NANTUCKET SUNNY 66 60 81 S15 30.15F MARTHAS VNYRD SUNNY 70 63 78 SW16 30.14F $$ MAZALL-302300- CENTRAL AND WESTERN MASSACHUSETTS CITY SKY/WX TMP DP RH WIND PRES REMARKS WORCESTER SUNNY 80 60 50 SW20G26 30.08F FITCHBURG SUNNY 83 62 49 S13G21 30.03F ORANGE SUNNY 81 62 52 S20G26 30.02F SPRINGFIELD SUNNY 83 65 53 S16 30.02F WESTFIELD MOSUNNY 83 64 52 S15G25 30.03S NORTH ADAMS MOSUNNY 83 64 52 VRB6G20 30.00F PITTSFIELD MOSUNNY 80 63 55 S13G26 30.03F $$ RIZALL-302300- RHODE ISLAND CITY SKY/WX TMP DP RH WIND PRES REMARKS PROVIDENCE MOSUNNY 78 63 59 SW14G31 30.10F NEWPORT SUNNY 68 62 81 SW14G23 30.13F BLOCK ISLAND SUNNY 66 61 82 SW13G18 30.15S SMITHFIELD SUNNY N/A N/A N/A SW10G22 30.09S WESTERLY SUNNY 71 62 73 S13 30.14F $$ CTZALL-302300- CONNECTICUT CITY SKY/WX TMP DP RH WIND PRES REMARKS BRADLEY INTL MOSUNNY 83 64 52 S20G25 30.04F HARTFORD MOSUNNY 80 64 58 S16G28 30.06F BRIDGEPORT SUNNY 76 63 64 S13 30.10S DANBURY SUNNY 77 62 59 SW12G18 30.09S GROTON SUNNY 68 61 78 SW12 30.12F NEW HAVEN MOSUNNY 73 62 68 S12 30.10F CHESTER FAIR 75 64 69 SW12 30.12F MERIDEN SUNNY 79 62 56 S20G29 30.08S WILLIMANTIC NOT AVBL OXFORD MOSUNNY 77 63 61 S13G18 30.12S $$ MEZ002-015-021-024-NHZ003-005-008-011-012-014-VTZ005-008-302300- NORTHERN NEW ENGLAND CITY SKY/WX TMP DP RH WIND PRES REMARKS PORTLAND ME MOSUNNY 74 58 57 S14G24 29.96F BANGOR ME CLOUDY 74 62 66 S20G25 29.93F CONCORD NH MOSUNNY 85 63 47 S17 29.97F MANCHESTER NH PTSUNNY 86 62 44 SW12G23 29.97F NASHUA NH MOSUNNY 86 64 47 W6G14 30.01F PORTSMOUTH NH PTSUNNY 85 63 46 S16G24 29.96F JAFFREY NH SUNNY 80 62 54 S15G25 30.05F KEENE NH MOSUNNY 82 64 54 S14G20 30.00F BURLINGTON VT PTSUNNY 81 66 60 S17G26 29.87F MT. WASHINGTON PTSUNNY 57 54 88 W38G44 N/A $$ NYZ052-076-302300- EASTERN NEW YORK CITY SKY/WX TMP DP RH WIND PRES REMARKS ALBANY PTSUNNY 83 66 56 S13G22 29.95F NEW YORK CITY MOSUNNY 78 61 55 S21G28 30.06F $$ ANZALL-302300- MARINE OBSERVATIONS STATION/POSITION TIME TEMP WIND PRES VSBY WAVE AIR SEA DIR/SP/G HT/PER (UTC) (F) (DEG/KT/KT) (MB) (MI) (FT/S) BOSTON BUOY 2150 67 56 200/ 16/ 19 N/A 3/ 9 BUZZARDS BAY 2200 200/ 19/ 21 N/A NANTUCKET SOUND 2150 64 62 210/ 16/ 17 N/A 1/ 3 MASS BAY-STELLWA 2104 62 53 180/ 14/ 16 N/A 1 3/4 3/ 8 ISLE OF SHOALS 2200 70 190/ 27/ 29 N/A S OF BLOCK IS 2108 60 N/A 3/10 $$ ......................KEY......................... SKY/WX - SKY CONDITION/PRESENT WEATHER TMP - TEMPERATURE IN FAHRENHEIT DWPT - DEWPOINT IN FAHRENHEIT RH - RELATIVE HUMIDITY IN PERCENT WIND - DIRECTION AND SPEED IN MPH PRES - MEAN SEA LEVEL PRESSURE IN INCHES OF HG WCI - WIND CHILL INDEX VSB - VISIBILITY IN MILES HX - HEAT INDEX TC - TEMPERATURE IN CELSIUS VRB - VARIABLE WIND DIRECTION N/A - NOT AVAILABLE

USA.gov is the U.S. government's official web portal to all federal, state and local government web resources and services.